Osoyoos, British Columbia

10:39 AM PDT on September 20, 2017 (GMT -0700)
Osoyoos

Weather History for CWYY - October, 2011

Change the Weather History Date:

Friday, October 28, 2011

  Actual Average (KOMK) Record (KOMK)
Temperature  
Mean Temperature 42 °F 44 °F  
Max Temperature 52 °F 54 °F 73 °F (2003)
Min Temperature 32 °F 33 °F 16 °F (1948)
Degree Days  
Heating Degree Days 23 22  
Month to date heating degree days 432  
Since 1 July heating degree days 593  
Cooling Degree Days 0 0  
Month to date cooling degree days 0  
Year to date cooling degree days 664  
Moisture  
Dew Point 27 °F    
Average Humidity 49    
Maximum Humidity 59    
Minimum Humidity 31    
Precipitation  
Precipitation 0.00 in 0.05 in 0.55 in (1999)
Month to date precipitation 0.94  
Year to date precipitation 10.80  
Sea Level Pressure  
Sea Level Pressure 30.04 in    
Wind  
Wind Speed 8 mph ()    
Max Wind Speed 13 mph    
Max Gust Speed 22 mph    
T = Trace of Precipitation, MM = Missing Value Source: Averaged Metar Reports

Daily Weather History Graph

Daily Weather History Graph

Search for Another Location

Airport or City:

Trip Planner

Search our weather history database for the weather conditions in past years. The results will help you decide how hot, cold, wet, or windy it might be!

Date:

Astronomy

Oct. 28, 2011 Rise Set
Actual Time 7:38 AM PDT 5:43 PM PDT
Civil Twilight 7:05 AM PDT 6:16 PM PDT
Nautical Twilight 6:28 AM PDT 6:53 PM PDT
Astronomical Twilight 5:51 AM PDT 7:30 PM PDT
Moon 10:16 AM PDT (10/28) 6:54 PM PDT (10/28)
Length of Visible Light 11h 11m
Length of Day
10h 05m
Waxing Crescent, 6% of the Moon is Illuminated
Oct 28
Waxing Crescent
Nov 2
First Quarter
Nov 10
Full
Nov 18
Last Quarter
Nov 24
New

Hourly Weather History & Observations

Time (PDT) Temp. Windchill Dew Point Humidity Pressure Visibility Wind Dir Wind Speed Gust Speed Precip Events Conditions
12:00 AM 39.4 °F 35.2 °F 24.1 °F 54% 30.25 in - SE 5.8 mph - N/A   Unknown
1:00 AM 40.5 °F 34.6 °F 23.5 °F 51% 30.23 in - SSE 9.2 mph - N/A   Unknown
2:00 AM 40.3 °F 33.9 °F 23.5 °F 51% 30.22 in - SSE 10.4 mph - N/A   Unknown
3:00 AM 39.6 °F 34.0 °F 23.7 °F 53% 30.20 in - SSE 8.1 mph - N/A   Unknown
4:00 AM 38.8 °F 32.1 °F 25.7 °F 59% 30.18 in - South 10.4 mph - N/A   Unknown
5:00 AM 40 °F - 24 °F 40% 30.18 in - SSE 9.2 mph - -  
5:00 AM 40.5 °F 34.6 °F 24.3 °F 52% 30.18 in - SSE 9.2 mph - N/A   Unknown
6:00 AM 41.0 °F 34.3 °F 24.4 °F 52% 30.18 in - SSE 11.5 mph - N/A   Unknown
7:00 AM 39.0 °F 32.8 °F 25.3 °F 58% 30.16 in - SSE 9.2 mph - N/A   Unknown
8:00 AM 40.8 °F 36.2 °F 25.0 °F 53% 30.13 in - SSE 6.9 mph - N/A   Unknown
9:00 AM 40.1 °F 34.1 °F 25.2 °F 55% 30.13 in - SSE 9.2 mph - N/A   Unknown
10:00 AM 41.7 °F 36.1 °F 26.1 °F 54% 30.10 in - SSE 9.2 mph - N/A   Unknown
11:00 AM 45 °F - 28 °F 40% 30.07 in - South 8.1 mph - -  
11:00 AM 45.1 °F 40.8 °F 28.4 °F 52% 30.07 in - South 8.1 mph - N/A   Unknown
12:00 PM 48.4 °F - 28.4 °F 46% 30.04 in - SSE 8.1 mph - N/A   Unknown
1:00 PM 50.0 °F - 28.2 °F 43% 30.01 in - SSE 11.5 mph - N/A   Unknown
2:00 PM 51.4 °F - 29.8 °F 44% 29.94 in - South 11.5 mph 18.4 mph N/A   Unknown
3:00 PM 50.2 °F - 28.8 °F 44% 29.91 in - SSE 9.2 mph - N/A   Unknown
4:00 PM 51.4 °F - 29.7 °F 43% 29.91 in - South 12.7 mph 21.9 mph N/A   Unknown
5:00 PM 50 °F - 29 °F 31% 29.89 in - SE 9.2 mph - -  
5:00 PM 50.4 °F - 28.6 °F 43% 29.89 in - SE 9.2 mph - N/A   Unknown
6:00 PM 49.6 °F - 29.1 °F 45% 29.87 in - SE 9.2 mph - N/A   Unknown
7:00 PM 49.6 °F - 29.8 °F 47% 29.87 in - SE 9.2 mph - N/A   Unknown
8:00 PM 48.7 °F - 30.0 °F 48% 29.89 in - SE 8.1 mph - N/A   Unknown
9:00 PM 47.3 °F - 29.5 °F 50% 29.88 in - SE 4.6 mph - N/A   Unknown
10:00 PM 46.2 °F 44.1 °F 28.9 °F 51% 29.91 in - ESE 4.6 mph - N/A   Unknown
11:00 PM 43 °F - 29 °F 46% 29.94 in - ESE 3.5 mph - -  
11:00 PM 42.8 °F 41.1 °F 29.3 °F 59% 29.94 in - ESE 3.5 mph - N/A   Unknown